Vorticity
-5 -2 4 2 9 15 10 5 -0 5 3 4 8 4 0 18 10 8 7 4 4 9
3 2 7 -0 2 8 13 15 16 7 7 11 10 9 6 4 36 16 26 9 7 4
8 2 -2 6 3 6 12 16 19 16 10 10 4 12 11 5 12 13 25 20 6 7
-2 -7 8 2 10 3 7 9 10 10 5 4 4 9 16 22 42 22 19 17 4 5
20 15 1 -0 5 15 11 8 6 7 7 7 13 6 11 31 34 20 21 13 1 3
12 3 4 5 -3 4 12 9 8 6 12 4 12 4 11 17 24 5 16 24 10 5
13 0 7 9 -12 9 3 15 10 8 7 7 11 -1 10 12 18 36 11 24 20 5
11 8 6 10 6 5 2 7 9 6 10 5 4 7 9 9 8 10 13 7 9 10
12 13 12 13 9 4 7 9 6 2 13 8 7 6 9 6 6 7 9 9 8 9
16 12 11 7 11 10 10 10 15 5 9 6 5 8 7 11 8 8 11 12 9 13
12 16 13 10 7 9 12 15 6 11 15 8 9 7 6 7 7 6 5 6 8 15
8 14 14 12 8 10 14 13 12 11 5 10 6 7 6 6 6 8 8 7 9 6
7 9 14 14 10 7 13 13 10 9 8 12 12 0 7 10 10 8 7 7 7 7
8 8 14 17 14 12 12 10 9 9 9 9 9 9 8 8 8 8 7 8 7 7
Height
5943 5943 5941 5938 5936 5934 5932 5930 5930 5929 5927 5925 5925 5924 5922 5921 5920 5922 5922 5922 5921 5922
5943 5941 5939 5938 5936 5935 5930 5926 5925 5923 5923 5922 5920 5919 5916 5914 5913 5913 5915 5915 5915 5915
5940 5938 5936 5935 5936 5934 5929 5924 5921 5920 5918 5916 5916 5913 5909 5906 5905 5903 5904 5903 5905 5906
5930 5933 5933 5932 5932 5931 5927 5921 5919 5917 5914 5913 5910 5907 5903 5897 5894 5894 5893 5892 5896 5898
5931 5929 5929 5928 5927 5926 5924 5918 5916 5914 5911 5909 5907 5902 5898 5893 5890 5887 5884 5886 5890 5891
5925 5924 5923 5924 5924 5921 5919 5915 5911 5911 5908 5906 5903 5899 5895 5890 5887 5883 5882 5882 5885 5887
5922 5922 5923 5922 5919 5914 5912 5909 5907 5904 5903 5901 5899 5896 5892 5889 5886 5882 5880 5881 5881 5881
5921 5920 5918 5915 5911 5908 5906 5904 5903 5899 5897 5895 5893 5891 5889 5887 5885 5883 5882 5879 5878 5877
5916 5914 5911 5908 5904 5902 5899 5898 5896 5894 5892 5889 5887 5885 5884 5883 5882 5880 5878 5877 5876 5875
5908 5906 5903 5901 5898 5895 5893 5892 5889 5888 5886 5884 5882 5878 5878 5878 5876 5875 5874 5872 5871 5869
5904 5901 5898 5895 5892 5889 5887 5884 5882 5881 5880 5878 5874 5872 5871 5870 5870 5869 5867 5865 5864 5862
5896 5892 5889 5887 5884 5881 5879 5878 5876 5874 5872 5871 5868 5865 5863 5862 5862 5861 5860 5858 5857 5856
5889 5885 5880 5877 5874 5872 5869 5867 5866 5865 5863 5862 5860 5858 5855 5854 5853 5852 5850 5849 5849 5848
5879 5876 5872 5869 5866 5863 5860 5858 5856 5854 5853 5852 5850 5848 5846 5844 5844 5844 5842 5841 5841 5839